GSAT-30 (45026 NORAD) Tracking and Keplerian Element Data

This shows tracking and keplerian element data for the satellite.

Feedback or suggestion? Click here.




ElementValue
Catalog45026
NameGSAT-30
Epoch Orbit77
Epoch Day90.76091142
Epoch Year2020
RAAN215.0502
Inclination0.0197
Eccentricity0.0009483
Argument of Perigee96.8041
Mean Anonmoly199.1245
Mean Motion1.0006173
Decay Rate1.37E-06
L11 45026U 20005A 20090.76091142 .00000137 00000-0 00000-0 0 9996
L22 45026 0.0197 215.0502 0009483 96.8041 199.1245 1.00061730 776

Live tracking and technical data element details for GSAT-30 (NORAD 45026). GSAT-30 can be tracked NOW for your location showing map with azimuth and elevation plus other details from your city location.

Track the satellite on the map from your city or location and see movement details for azimuth, elevation, latitude, longitude, range, height, and movement on the map or in text.







IsCatalogInMostPopularTable: catalog: 45026, numindb: 25
Update: records affected: 1



GetName: 45026 GSAT-30

Hit Count: updated at: Fri, 10 Apr 2020 17:34:12 GMT